Oceana NAS, VA

1:29 PM EDT on April 26, 2018 (GMT -0400)
Oceana Naval Air Station

Weather History for KNTU - December, 2013

Change the Weather History Date:

Tuesday, December 24, 2013

  Actual Average Record
Temperature  
Mean Temperature 39 °F -  
Max Temperature 44 °F 47 °F 82 °F (2015)
Min Temperature 32 °F 31 °F 17 °F (2000)
Degree Days  
Heating Degree Days 26    
Moisture  
Dew Point 31 °F    
Average Humidity 68    
Maximum Humidity 89    
Minimum Humidity 44    
Precipitation  
Precipitation 0.34 in - - ()
Sea Level Pressure  
Sea Level Pressure 30.21 in    
Wind  
Wind Speed 18 mph (NNW)    
Max Wind Speed 24 mph    
Max Gust Speed 33 mph    
Visibility 9 miles    
Events Rain    
Averages and records for this station are not official NWS values.
T = Trace of Precipitation, MM = Missing Value Source: NWS Daily Summary

Daily Weather History Graph

Daily Weather History Graph

Search for Another Location

Airport or City:

Astronomy

Dec. 24, 2013 Rise Set
Actual Time 7:14 AM EST 4:53 PM EST
Civil Twilight 6:45 AM EST 5:22 PM EST
Nautical Twilight 6:13 AM EST 5:54 PM EST
Astronomical Twilight 5:41 AM EST 6:26 PM EST
Moon 11:49 PM EST (12/24) 11:17 AM EST (12/24)
Length of Visible Light 10h 36m
Length of Day
9h 38m
Waning Gibbous, 59% of the Moon is Illuminated
Dec 24
Waning Gibbous
Dec 25
Last Quarter
Jan 1
New
Jan 7
First Quarter
Jan 15
Full

Hourly Weather History & Observations

Time (EST) Temp. Windchill Dew Point Humidity Pressure Visibility Wind Dir Wind Speed Gust Speed Precip Events Conditions
12:56 AM 44.1 °F 36.2 °F 41.0 °F 89% 30.15 in 5.0 mi North 18.4 mph 28.8 mph 0.12 in Rain Light Rain
1:43 AM 43.0 °F 34.8 °F 39.9 °F 89% 30.13 in 5.0 mi North 18.4 mph 27.6 mph 0.07 in Rain Light Rain
1:56 AM 43.0 °F 33.5 °F 39.9 °F 89% 30.14 in 5.0 mi North 24.2 mph 29.9 mph 0.08 in Rain Light Rain
2:56 AM 42.1 °F 34.2 °F 39.0 °F 89% 30.15 in 5.0 mi North 16.1 mph - 0.06 in Rain Light Rain
3:56 AM 42.1 °F 34.5 °F 39.0 °F 89% 30.14 in 5.0 mi North 15.0 mph - 0.05 in Rain Light Rain
4:37 AM 42.1 °F 34.5 °F 37.0 °F 82% 30.12 in 10.0 mi North 15.0 mph 24.2 mph 0.00 in   Overcast
4:56 AM 42.1 °F 34.2 °F 36.0 °F 79% 30.12 in 10.0 mi North 16.1 mph 27.6 mph 0.00 in   Overcast
5:17 AM 42.1 °F 34.2 °F 35.1 °F 76% 30.12 in 10.0 mi North 16.1 mph 26.5 mph 0.00 in Rain Light Rain
5:56 AM 41.0 °F 32.5 °F 36.0 °F 82% 30.14 in 10.0 mi North 17.3 mph - 0.03 in Rain Light Rain
6:45 AM 41.0 °F 31.4 °F 34.0 °F 76% 30.11 in 10.0 mi North 21.9 mph 33.4 mph 0.00 in   Overcast
6:56 AM 39.9 °F 30.5 °F 34.0 °F 79% 30.14 in 7.0 mi North 19.6 mph 31.1 mph 0.00 in Rain Light Rain
7:05 AM 41.0 °F 31.1 °F 34.0 °F 76% 30.14 in 10.0 mi North 23.0 mph 29.9 mph 0.00 in Rain Light Rain
7:46 AM 41.0 °F 31.9 °F 33.1 °F 73% 30.17 in 10.0 mi NNW 19.6 mph 28.8 mph 0.00 in   Mostly Cloudy
7:56 AM 41.0 °F 31.9 °F 33.1 °F 73% 30.18 in 10.0 mi North 19.6 mph 26.5 mph 0.00 in   Mostly Cloudy
8:32 AM 41.0 °F 32.8 °F 33.1 °F 73% 30.17 in 10.0 mi North 16.1 mph 24.2 mph N/A   Mostly Cloudy
8:56 AM 41.0 °F 32.5 °F 32.0 °F 70% 30.18 in 10.0 mi North 17.3 mph - N/A   Mostly Cloudy
9:44 AM 42.1 °F 34.5 °F 33.1 °F 70% 30.19 in 10.0 mi North 15.0 mph 26.5 mph N/A   Mostly Cloudy
9:56 AM 42.1 °F 32.8 °F 30.9 °F 65% 30.19 in 10.0 mi North 21.9 mph 27.6 mph N/A   Mostly Cloudy
10:56 AM 42.1 °F 33.3 °F 30.9 °F 65% 30.19 in 10.0 mi NNW 19.6 mph 26.5 mph N/A   Mostly Cloudy
11:56 AM 43.0 °F 34.2 °F 28.9 °F 58% 30.19 in 10.0 mi North 20.7 mph - N/A   Scattered Clouds
12:56 PM 43.0 °F 35.1 °F 30.0 °F 60% 30.19 in 10.0 mi NNW 17.3 mph 29.9 mph N/A   Scattered Clouds
1:56 PM 44.1 °F 36.5 °F 28.0 °F 53% 30.20 in 10.0 mi NNW 17.3 mph 26.5 mph N/A   Scattered Clouds
2:56 PM 44.1 °F 37.1 °F 27.0 °F 51% 30.22 in 10.0 mi North 15.0 mph - N/A   Scattered Clouds
3:56 PM 43.0 °F 36.4 °F 27.0 °F 53% 30.24 in 10.0 mi NNW 12.7 mph - N/A   Scattered Clouds
4:56 PM 41.0 °F 33.5 °F 26.1 °F 55% 30.26 in 10.0 mi NW 13.8 mph - N/A   Scattered Clouds
5:56 PM 41.0 °F 34.3 °F 26.1 °F 55% 30.28 in 10.0 mi NW 11.5 mph - N/A   Mostly Cloudy
6:56 PM 39.9 °F 32.9 °F 26.1 °F 58% 30.31 in 10.0 mi NW 11.5 mph - N/A   Partly Cloudy
7:56 PM 39.9 °F 32.1 °F 25.0 °F 55% 30.33 in 10.0 mi NW 13.8 mph - N/A   Scattered Clouds
8:56 PM 39.9 °F 30.8 °F 27.0 °F 60% 30.36 in 10.0 mi North 18.4 mph 26.5 mph N/A   Mostly Cloudy
9:56 PM 36.0 °F 25.3 °F 21.0 °F 55% 30.39 in 10.0 mi NNW 19.6 mph 27.6 mph N/A   Scattered Clouds
10:56 PM 34.0 °F 23.4 °F 17.1 °F 50% 30.41 in 10.0 mi North 17.3 mph 25.3 mph N/A   Clear
11:56 PM 32.0 °F 20.5 °F 12.0 °F 44% 30.43 in 10.0 mi North 18.4 mph 26.5 mph N/A   Clear